Theta_e
311 311 311 311 312 311 312 313 313 313 314 314 314 313 313 312 313 315 319 323 324 324 325 326 323 323 334 336 336 335 340 344 343 343 341 342 343 343 342 341 340 340 340 337 338
311 311 311 311 311 312 313 313 314 314 314 315 315 314 313 313 314 318 322 326 326 328 327 325 328 331 330 330 335 337 341 342 339 338 339 342 342 343 343 341 341 340 340 338 338
311 311 311 311 311 312 313 314 314 315 315 315 315 315 314 314 316 320 326 326 325 325 326 324 323 327 329 335 336 336 339 338 338 338 338 342 343 344 343 343 341 341 341 338 337
311 311 311 311 311 312 313 314 314 315 315 315 316 316 315 317 323 320 325 326 324 325 324 325 324 328 334 338 336 338 337 337 338 338 339 341 342 343 343 341 340 339 338 338 337
311 311 311 311 311 312 313 314 315 315 315 316 317 317 317 325 328 322 322 322 322 323 324 324 327 330 336 337 337 338 338 338 336 339 339 342 342 343 342 341 340 338 337 336 337
311 311 311 311 311 312 314 315 315 315 316 316 317 318 321 324 326 328 327 323 323 325 324 324 327 330 335 336 337 335 337 337 336 340 341 342 343 342 341 339 337 337 336 336 335
312 312 311 312 311 312 313 315 316 316 316 316 317 318 320 323 326 327 328 325 325 324 323 323 326 333 334 336 335 335 339 337 336 342 343 342 344 345 341 337 335 337 335 335 334
312 312 312 312 311 312 313 315 316 316 317 317 317 319 320 322 323 325 327 325 324 324 322 324 327 328 335 335 334 337 337 343 335 341 342 342 344 342 338 335 336 336 336 335 335
313 312 312 312 312 312 313 315 316 317 317 317 318 319 320 321 324 324 324 324 324 322 321 330 329 333 333 337 337 335 336 338 337 336 343 343 344 342 338 336 336 334 334 334 335
314 313 312 312 312 312 313 315 316 317 317 317 319 321 321 322 324 325 325 324 324 324 324 330 332 334 333 334 332 331 335 336 336 337 342 344 345 342 340 337 337 334 332 331 331
316 314 312 312 312 312 313 315 318 321 318 322 319 320 321 322 323 326 325 325 326 325 327 327 330 332 330 334 332 330 330 331 333 336 339 341 341 340 342 338 338 337 334 333 332
317 315 312 312 312 312 314 317 321 321 321 320 321 323 323 323 322 323 324 326 326 328 324 326 329 328 325 326 329 330 333 335 335 336 338 338 340 340 342 341 340 339 338 335 335
317 317 313 312 312 313 315 317 320 321 321 321 323 323 323 323 322 323 323 324 327 327 326 327 327 324 325 327 328 330 334 335 335 339 339 341 341 343 341 341 340 339 339 337 336
317 317 313 312 315 316 318 321 320 321 324 322 322 324 324 323 323 322 324 324 325 328 326 327 324 325 325 327 328 330 331 333 338 339 337 340 340 340 342 343 341 340 340 338 337
319 318 313 312 318 321 321 318 323 322 327 324 325 322 322 322 323 324 322 323 325 326 326 328 327 326 327 327 328 328 330 332 335 335 336 340 342 340 337 341 341 340 339 339 338
321 318 313 313 317 317 318 321 322 324 328 327 328 329 321 322 322 323 324 324 324 325 325 326 323 324 326 326 327 331 333 329 327 332 337 334 340 336 341 340 338 336 337 338 336
322 317 313 314 316 316 318 323 324 325 322 330 331 330 329 330 328 324 326 326 327 327 328 327 326 324 324 331 331 331 334 336 335 334 336 337 341 339 335 334 334 334 334 332 332
322 316 313 314 316 316 322 326 324 323 328 329 331 331 333 333 330 332 325 327 328 326 327 327 328 330 331 333 334 332 336 338 338 336 334 336 340 339 332 332 332 331 331 331 331
322 317 313 314 316 317 322 328 325 325 331 332 330 332 332 332 332 333 331 328 330 325 329 328 329 330 331 331 333 332 335 330 334 325 329 330 331 331 332 334 332 330 328 329 329
321 316 314 314 315 320 325 323 325 323 332 331 331 333 334 333 332 333 332 332 332 331 330 332 334 331 332 330 326 331 326 331 329 333 331 330 334 334 332 335 335 331 328 328 327
321 321 318 314 319 322 327 324 323 323 330 331 332 333 334 334 333 333 334 332 332 333 330 332 333 332 331 330 329 328 329 327 328 329 331 332 332 330 333 332 332 333 330 327 326
321 324 315 319 322 318 325 323 322 327 331 333 332 333 333 333 334 333 334 333 331 332 334 330 334 336 333 328 325 328 328 328 330 331 329 329 330 326 328 327 326 327 329 326 325
324 324 315 319 324 324 322 323 323 325 329 332 335 333 334 335 334 333 334 333 331 332 333 331 333 335 334 327 327 330 329 326 326 326 331 330 330 325 327 327 325 326 326 325 321
326 331 318 319 320 323 323 323 324 328 330 332 333 332 334 334 333 334 334 333 331 330 328 329 332 334 334 330 327 333 331 327 327 330 327 326 328 327 327 327 325 323 322 319 316
336 335 331 330 331 328 325 324 327 333 331 332 333 333 335 336 336 335 333 333 332 328 330 332 336 331 331 330 331 329 326 325 325 325 328 329 329 327 324 326 324 321 318 317 314
336 337 331 331 330 332 328 332 332 330 333 333 334 334 333 337 335 336 334 335 334 331 333 331 335 334 333 330 331 330 328 325 326 327 327 327 327 320 319 323 323 321 317 315 314
336 338 335 328 330 332 333 334 335 333 332 332 332 334 334 332 332 332 330 332 331 333 334 335 336 337 336 332 331 333 330 329 328 326 325 326 323 318 319 317 315 316 317 316 316
Wind_Speed
15 13 11 9 5 3 3 4 4 4 4 3 3 4 6 9 12 13 14 11 11 10 10 9 9 9 6 2 1 2 2 4 5 6 5 11 8 4 3 7 4 3 2 3 19
15 13 11 8 4 2 3 3 3 3 3 3 3 4 6 10 12 14 14 12 9 11 10 11 11 11 4 3 2 1 2 7 4 4 6 15 12 11 5 6 5 5 8 8 22
15 13 11 8 4 1 2 3 3 3 3 3 4 5 7 10 9 11 16 12 8 8 7 9 8 6 3 3 2 2 2 1 3 5 4 14 10 9 6 6 9 11 13 17 24
15 13 11 8 4 1 2 2 3 3 3 4 4 5 9 13 8 12 16 12 8 7 9 10 10 4 2 3 3 2 1 1 5 2 8 13 11 7 12 4 6 10 11 19 25
15 13 10 8 3 1 3 2 2 2 3 3 4 6 10 4 5 11 13 13 13 11 10 10 8 4 2 2 3 1 1 1 3 2 9 12 10 7 12 11 7 11 14 19 23
15 12 10 8 3 2 4 3 2 2 2 3 4 7 7 5 6 8 12 16 15 11 10 9 3 4 3 1 4 1 3 3 1 7 9 10 6 4 9 12 11 15 15 19 23
15 12 10 8 3 2 4 4 2 1 1 2 3 5 5 4 5 7 12 16 15 6 2 7 7 1 2 3 2 2 3 4 9 8 6 8 7 14 9 14 14 16 16 20 21
16 12 9 7 3 2 4 4 2 1 1 1 2 4 3 5 4 6 11 12 11 7 6 3 5 5 2 5 3 1 0 3 3 10 5 9 17 11 16 19 17 17 17 20 22
16 13 9 7 3 3 5 5 4 2 0 1 3 3 2 6 5 7 8 7 9 7 6 2 9 3 4 2 1 1 7 7 4 15 7 12 13 1 14 18 18 19 18 21 21
16 13 9 7 3 3 5 6 4 3 2 2 2 2 5 4 6 6 10 8 7 9 9 6 2 2 2 4 6 7 8 6 9 5 10 12 20 1 12 16 18 18 18 19 19
17 14 10 6 3 4 6 4 3 3 7 4 2 1 2 3 7 8 8 11 8 5 4 4 5 8 10 13 13 8 8 13 5 4 9 14 17 11 13 17 17 17 19 20 20
18 14 10 6 3 4 5 4 3 1 4 7 11 11 9 7 2 9 11 8 8 5 8 3 9 12 4 7 10 8 7 8 2 2 10 4 14 11 14 19 22 20 19 21 19
18 15 11 6 3 5 8 7 3 5 2 2 5 9 11 13 8 10 14 8 4 5 7 5 6 3 7 3 5 6 8 9 5 6 2 3 8 6 7 16 18 23 20 18 20
18 16 9 4 2 7 9 4 7 4 1 1 2 2 9 8 6 13 14 4 3 8 6 6 1 3 2 10 3 13 6 10 5 5 8 2 5 4 5 11 18 22 26 22 19
18 16 7 2 4 9 5 4 2 6 1 3 1 2 7 8 8 9 15 12 9 9 4 12 9 9 12 11 5 13 1 2 5 4 3 5 4 4 3 8 15 20 23 25 19
19 14 5 3 6 6 2 3 4 1 1 2 1 0 4 4 5 3 5 7 3 5 4 14 2 5 13 12 7 4 3 3 3 1 6 4 6 4 4 3 4 5 16 17 17
20 10 4 6 6 6 1 9 1 1 2 3 2 3 1 2 2 4 7 6 7 6 9 5 7 4 5 5 3 2 2 5 5 4 9 4 5 9 4 6 9 8 8 10 10
18 7 4 8 9 4 8 1 1 1 3 2 3 0 2 5 1 4 2 5 5 5 7 6 10 6 4 4 2 3 3 4 9 10 12 3 5 2 1 8 6 6 7 9 11
15 5 5 10 10 5 5 2 3 4 1 3 1 2 3 1 1 4 3 3 1 6 7 6 6 2 3 2 3 3 4 2 2 1 4 1 4 7 2 6 5 5 7 12 13
12 1 5 11 11 6 2 3 3 4 2 1 1 1 1 3 2 4 3 2 1 1 2 3 3 1 2 3 7 1 3 3 1 4 5 1 4 5 6 7 7 9 13 12 10
3 3 1 10 13 3 2 3 4 6 4 2 2 3 1 1 3 2 3 2 2 0 2 4 1 1 3 1 0 1 2 2 0 2 3 5 5 5 9 8 7 10 11 9 9
1 2 6 11 3 2 2 3 2 3 5 5 2 2 3 3 4 3 2 3 6 3 2 1 3 2 1 1 2 1 1 1 3 2 0 2 3 4 8 11 10 10 9 10 8
3 3 9 5 2 1 1 3 4 2 4 4 4 2 2 1 2 1 2 3 3 1 0 3 1 2 1 3 2 2 2 2 2 1 4 6 3 5 10 10 9 8 2 5 4
2 2 2 1 3 2 0 3 3 3 3 3 3 3 2 3 3 1 1 1 3 3 5 3 2 2 3 2 2 4 8 4 2 2 1 2 8 11 17 15 11 7 8 8 7
4 1 2 3 2 3 1 2 2 3 1 6 2 7 7 4 2 4 2 2 1 2 3 2 3 2 2 2 2 2 4 5 2 3 4 8 9 11 13 12 8 7 7 8 8
4 2 2 3 2 1 1 1 2 3 3 3 5 7 8 5 4 5 6 2 1 2 2 1 1 0 2 0 3 4 3 1 5 6 4 7 6 12 10 7 6 4 5 7 9
6 4 1 1 2 1 1 1 2 5 2 3 4 4 4 0 4 4 4 4 6 2 2 1 3 1 1 5 5 3 3 5 3 5 3 7 4 9 7 10 9 6 4 6 2
Wind_Direction
7 8 8 9 18 49 77 93 101 107 113 119 130 148 163 169 172 172 174 175 181 187 190 182 163 157 151 128 104 50 160 170 171 171 148 168 177 172 172 149 149 187 156 194 173
5 7 7 8 17 46 95 98 100 101 102 106 128 143 161 168 175 174 170 172 170 189 192 185 159 147 132 150 154 160 198 182 171 160 175 179 187 178 180 170 193 198 206 182 181
2 5 7 5 15 74 120 119 115 112 108 107 114 133 156 158 164 179 170 161 159 158 175 175 186 162 170 161 154 153 326 181 210 209 198 180 184 181 187 207 213 212 188 177 183
359 3 5 3 12 109 150 134 119 109 99 94 102 131 147 144 156 180 181 182 182 178 174 171 172 177 190 179 155 251 208 161 16 285 181 186 170 200 212 218 219 230 205 183 186
358 360 2 1 9 170 171 159 130 103 87 80 101 134 144 156 133 162 186 187 205 201 195 191 177 179 260 169 158 256 52 321 341 185 182 164 193 214 223 234 239 189 184 188 192
358 356 359 358 357 183 183 176 153 117 84 78 106 143 149 151 144 173 194 192 207 201 206 199 243 225 120 140 214 139 210 222 171 165 166 182 177 192 219 217 187 184 188 195 196
357 354 357 353 345 193 187 190 169 122 55 78 125 160 177 133 116 163 180 198 201 215 209 213 239 264 141 136 144 166 234 243 187 179 172 174 219 224 204 191 188 190 196 199 205
355 352 353 348 333 192 192 196 178 166 339 129 152 170 174 165 152 157 158 180 199 197 193 244 243 196 114 138 53 358 275 267 143 171 185 195 261 211 185 182 195 197 201 210 217
355 352 349 343 323 196 187 197 202 214 249 136 158 168 174 188 185 179 171 185 183 193 202 130 138 128 133 161 279 249 268 236 278 207 161 204 264 163 185 190 198 203 205 214 223
354 351 345 339 315 207 182 199 221 244 211 164 183 189 191 178 178 171 172 162 140 145 131 161 127 177 143 198 287 281 254 260 250 198 213 208 250 180 192 203 207 211 211 219 219
352 349 340 338 285 209 185 183 242 252 215 217 200 193 74 162 167 168 161 179 171 183 179 188 210 232 253 220 258 288 261 256 267 194 205 234 259 265 213 214 217 221 218 224 224
348 346 336 334 279 208 175 192 151 104 298 241 238 239 236 251 198 185 168 175 184 187 131 152 238 247 280 228 244 261 258 261 218 166 214 248 272 267 223 222 220 222 226 229 234
344 342 335 334 270 186 173 192 225 315 272 264 223 235 231 213 212 202 191 190 173 183 198 224 274 176 264 229 271 279 242 257 271 145 186 303 283 251 228 231 227 230 235 237 236
342 338 333 347 144 158 171 207 303 266 355 350 247 272 199 187 229 220 195 208 179 233 192 251 267 273 301 304 266 303 250 245 183 197 287 235 283 267 247 247 234 233 231 236 241
340 335 322 209 162 156 172 303 163 149 83 355 97 231 180 198 209 213 223 207 214 205 197 263 256 269 284 274 257 283 24 219 172 196 243 191 236 259 269 262 246 235 231 231 240
339 333 306 201 187 175 247 159 141 268 125 34 71 87 171 226 208 214 188 205 181 175 223 257 248 237 259 290 231 142 126 84 89 152 261 273 217 262 234 257 315 270 229 229 241
337 329 267 193 182 170 237 149 9 194 317 4 346 4 109 358 280 218 185 181 206 208 238 255 254 251 204 212 159 174 244 276 265 254 290 135 200 266 298 301 284 312 216 206 215
335 326 227 194 194 207 161 127 164 251 261 336 344 43 91 356 49 331 222 227 227 215 240 251 280 197 183 239 238 162 200 261 294 294 310 155 237 274 271 310 259 268 216 194 197
333 317 201 189 188 181 185 115 206 205 295 299 146 61 53 78 319 341 242 249 185 182 202 189 254 297 63 32 317 124 219 18 284 95 254 354 269 263 272 240 229 203 194 205 203
336 176 177 183 183 183 114 192 218 220 244 178 348 305 304 341 336 23 293 29 95 183 231 143 271 23 24 117 65 320 100 266 246 280 292 204 290 286 294 258 221 213 212 208 202
357 137 223 169 164 173 159 214 235 244 213 208 221 196 185 292 279 110 295 320 22 312 184 136 209 193 246 99 95 203 236 63 321 284 303 321 307 347 330 345 309 269 243 218 213
18 91 155 148 103 35 165 199 225 249 192 223 150 136 223 194 246 120 261 289 5 344 219 71 145 254 315 38 269 203 73 144 292 285 259 301 297 346 333 329 307 293 258 207 205
25 82 149 33 146 171 265 262 239 224 223 194 171 206 178 239 277 319 23 332 335 221 348 183 46 268 197 163 134 53 25 105 117 204 245 295 339 14 6 357 354 333 248 158 146
347 112 126 327 87 118 195 253 245 232 214 157 134 121 118 244 208 196 314 336 331 61 66 68 109 249 291 305 18 305 321 344 225 267 340 296 320 356 356 354 357 43 85 88 98
357 71 134 173 124 98 132 315 268 217 192 188 144 204 187 198 200 202 200 272 284 98 79 90 161 229 23 272 197 71 21 43 73 46 355 350 340 7 353 353 28 84 90 95 89
8 354 70 86 76 87 99 222 264 270 230 217 230 183 191 224 236 211 200 164 7 133 86 86 136 293 153 98 348 108 50 99 80 31 19 347 34 4 10 37 55 81 130 146 150
353 5 7 31 98 230 170 312 314 354 265 279 283 190 195 119 298 316 236 125 129 121 144 139 141 9 280 349 133 151 47 57 87 55 350 14 358 338 19 28 29 42 91 112 107